"Sample Date","Sample Time","Sample Value","Units","Flow Rate","Number Channels","Micron Size 0","Counts/Channel 0","Micron Size 1","Counts/Channel 1","Micron Size 2","Counts/Channel 2","Micron Size 3","Counts/Channel 3","Micron Size 4","Counts/Channel 4","Micron Size 5","Counts/Channel 5","Micron Size 6","Counts/Channel 6","Micron Size 7","Counts/Channel 7","Micron Size 8","Counts/Channel 8","Micron Size 9","Counts/Channel 9","Micron Size 10","Counts/Channel 10","Micron Size 11","Counts/Channel 11","Micron Size 12","Counts/Channel 12","Micron Size 13","Counts/Channel 13","Micron Size 14","Counts/Channel 14","Micron Size 15","Counts/Channel 15","Micron Size 16","Counts/Channel 16","Micron Size 17","Counts/Channel 17","Micron Size 18","Counts/Channel 18","Micron Size 19","Counts/Channel 19","Micron Size 20","Counts/Channel 20","Micron Size 21","Counts/Channel 21","Micron Size 22","Counts/Channel 22","Micron Size 23","Counts/Channel 23","Micron Size 24","Counts/Channel 24","Micron Size 25","Counts/Channel 25","Micron Size 26","Counts/Channel 26","Micron Size 27","Counts/Channel 27","Micron Size 28","Counts/Channel 28","Micron Size 29","Counts/Channel 29","Micron Size 30","Counts/Channel 30","Micron Size 31","Counts/Channel 31"
"05/05/08","09:00:02",141.000,"cc",28995.633,6,0.100,108.000,0.200,28.000,0.300,5.000,0.500,0,1.000,0,5.000,0
"05/05/08","09:00:08",163.000,"cc",29022.447,6,0.100,132.000,0.200,30.000,0.300,0,0.500,1.000,1.000,0,5.000,0
"05/05/08","09:00:14",147.000,"cc",29026.895,6,0.100,121.000,0.200,24.000,0.300,1.000,0.500,1.000,1.000,0,5.000,0
"05/05/08","09:00:20",184.000,"cc",29070.291,6,0.100,151.000,0.200,30.000,0.300,2.000,0.500,1.000,1.000,0,5.000,0
"05/05/08","09:00:26",148.000,"cc",29053.065,6,0.100,116.000,0.200,30.000,0.300,2.000,0.500,0,1.000,0,5.000,0
"05/05/08","09:00:32",167.000,"cc",28821.891,6,0.100,118.000,0.200,47.000,0.300,2.000,0.500,0,1.000,0,5.000,0
"05/05/08","09:00:38",143.000,"cc",28505.240,6,0.100,109.000,0.200,33.000,0.300,0,0.500,1.000,1.000,0,5.000,0
"05/05/08","09:00:44",118.000,"cc",28324.629,6,0.100,95.000,0.200,22.000,0.300,1.000,0.500,0,1.000,0,5.000,0
"05/05/08","09:00:50",134.000,"cc",28303.379,6,0.100,104.000,0.200,27.000,0.300,3.000,0.500,0,1.000,0,5.000,0
"05/05/08","09:00:56",152.000,"cc",28344.789,6,0.100,123.000,0.200,26.000,0.300,3.000,0.500,0,1.000,0,5.000,0
"05/05/08","09:01:02",126.000,"cc",28281.041,6,0.100,97.000,0.200,28.000,0.300,1.000,0.500,0,1.000,0,5.000,0
"05/05/08","09:01:08",129.000,"cc",28361.598,6,0.100,101.000,0.200,28.000,0.300,0,0.500,0,1.000,0,5.000,0
"05/05/08","09:01:14",153.000,"cc",28339.832,6,0.100,125.000,0.200,26.000,0.300,1.000,0.500,1.000,1.000,0,5.000,0
"05/05/08","09:01:20",128.000,"cc",28332.955,6,0.100,104.000,0.200,24.000,0.300,0,0.500,0,1.000,0,5.000,0
"05/05/08","09:01:26",124.000,"cc",28300.107,6,0.100,97.000,0.200,25.000,0.300,1.000,0.500,1.000,1.000,0,5.000,0
"05/05/08","09:01:32",126.000,"cc",28318.164,6,0.100,99.000,0.200,24.000,0.300,2.000,0.500,1.000,1.000,0,5.000,0
"05/05/08","09:01:38",127.000,"cc",28263.393,6,0.100,93.000,0.200,31.000,0.300,3.000,0.500,0,1.000,0,5.000,0
"05/05/08","09:01:44",140.000,"cc",28358.670,6,0.100,115.000,0.200,22.000,0.300,3.000,0.500,0,1.000,0,5.000,0
"05/05/08","09:01:50",124.000,"cc",28298.086,6,0.100,91.000,0.200,31.000,0.300,2.000,0.500,0,1.000,0,5.000,0
"05/05/08","09:01:56",138.000,"cc",28323.397,6,0.100,105.000,0.200,31.000,0.300,2.000,0.500,0,1.000,0,5.000,0
"05/05/08","09:02:02",134.000,"cc",28285.127,6,0.100,103.000,0.200,29.000,0.300,2.000,0.500,0,1.000,0,5.000,0
"05/05/08","09:02:08",110.000,"cc",28335.065,6,0.100,91.000,0.200,16.000,0.300,3.000,0.500,0,1.000,0,5.000,0
"05/05/08","09:02:14",142.000,"cc",28318.900,6,0.100,117.000,0.200,23.000,0.300,2.000,0.500,0,1.000,0,5.000,0
"05/05/08","09:02:20",131.000,"cc",28315.582,6,0.100,99.000,0.200,30.000,0.300,1.000,0.500,1.000,1.000,0,5.000,0
"05/05/08","09:02:26",135.000,"cc",28298.973,6,0.100,103.000,0.200,26.000,0.300,5.000,0.500,1.000,1.000,0,5.000,0
"05/05/08","09:02:32",123.000,"cc",28319.941,6,0.100,107.000,0.200,13.000,0.300,3.000,0.500,0,1.000,0,5.000,0
"05/05/08","09:02:38",131.000,"cc",28341.299,6,0.100,114.000,0.200,16.000,0.300,1.000,0.500,0,1.000,0,5.000,0
"05/05/08","09:02:44",157.000,"cc",28292.943,6,0.100,129.000,0.200,27.000,0.300,1.000,0.500,0,1.000,0,5.000,0
"05/05/08","09:02:50",132.000,"cc",28382.115,6,0.100,108.000,0.200,22.000,0.300,1.000,0.500,1.000,1.000,0,5.000,0
"05/05/08","09:02:56",119.000,"cc",28306.707,6,0.100,89.000,0.200,28.000,0.300,2.000,0.500,0,1.000,0,5.000,0
"05/05/08","09:03:02",162.000,"cc",28302.656,6,0.100,128.000,0.200,31.000,0.300,3.000,0.500,0,1.000,0,5.000,0
"05/05/08","09:03:08",145.000,"cc",28300.287,6,0.100,112.000,0.200,29.000,0.300,4.000,0.500,0,1.000,0,5.000,0
"05/05/08","09:03:14",136.000,"cc",28323.123,6,0.100,108.000,0.200,27.000,0.300,1.000,0.500,0,1.000,0,5.000,0
"05/05/08","09:03:20",140.000,"cc",28334.949,6,0.100,113.000,0.200,23.000,0.300,4.000,0.500,0,1.000,0,5.000,0
"05/05/08","09:03:26",126.000,"cc",28338.004,6,0.100,107.000,0.200,16.000,0.300,2.000,0.500,1.000,1.000,0,5.000,0
"05/05/08","09:03:32",144.000,"cc",28260.650,6,0.100,109.000,0.200,34.000,0.300,1.000,0.500,0,1.000,0,5.000,0
"05/05/08","09:03:38",135.000,"cc",28311.815,6,0.100,116.000,0.200,19.000,0.300,0,0.500,0,1.000,0,5.000,0
"05/05/08","09:03:44",119.000,"cc",28352.947,6,0.100,94.000,0.200,24.000,0.300,1.000,0.500,0,1.000,0,5.000,0
"05/05/08","09:03:50",121.000,"cc",28293.900,6,0.100,99.000,0.200,21.000,0.300,1.000,0.500,0,1.000,0,5.000,0
"05/05/08","09:03:56",153.000,"cc",28363.797,6,0.100,128.000,0.200,25.000,0.300,0,0.500,0,1.000,0,5.000,0
"05/05/08","09:04:02",160.000,"cc",28288.531,6,0.100,126.000,0.200,34.000,0.300,0,0.500,0,1.000,0,5.000,0
"05/05/08","09:04:08",154.000,"cc",28293.553,6,0.100,124.000,0.200,26.000,0.300,4.000,0.500,0,1.000,0,5.000,0
"05/05/08","09:04:14",130.000,"cc",28331.967,6,0.100,98.000,0.200,31.000,0.300,1.000,0.500,0,1.000,0,5.000,0
"05/05/08","09:04:20",130.000,"cc",28264.715,6,0.100,106.000,0.200,21.000,0.300,3.000,0.500,0,1.000,0,5.000,0
"05/05/08","09:04:26",149.000,"cc",28330.570,6,0.100,118.000,0.200,29.000,0.300,2.000,0.500,0,1.000,0,5.000,0
"05/05/08","09:04:32",123.000,"cc",28363.406,6,0.100,91.000,0.200,28.000,0.300,4.000,0.500,0,1.000,0,5.000,0
"05/05/08","09:04:38",159.000,"cc",28257.645,6,0.100,123.000,0.200,34.000,0.300,2.000,0.500,0,1.000,0,5.000,0
"05/05/08","09:04:44",149.000,"cc",28304.359,6,0.100,109.000,0.200,38.000,0.300,2.000,0.500,0,1.000,0,5.000,0
"05/05/08","09:04:50",151.000,"cc",28267.861,6,0.100,116.000,0.200,32.000,0.300,2.000,0.500,1.000,1.000,0,5.000,0
"05/05/08","09:04:56",149.000,"cc",28395.525,6,0.100,126.000,0.200,21.000,0.300,2.000,0.500,0,1.000,0,5.000,0
"05/05/08","09:05:02",146.000,"cc",28361.746,6,0.100,117.000,0.200,29.000,0.300,0,0.500,0,1.000,0,5.000,0
"05/05/08","09:05:08",126.000,"cc",28269.775,6,0.100,104.000,0.200,22.000,0.300,0,0.500,0,1.000,0,5.000,0
"05/05/08","09:05:14",117.000,"cc",28290.229,6,0.100,94.000,0.200,22.000,0.300,1.000,0.500,0,1.000,0,5.000,0
"05/05/08","09:05:20",115.000,"cc",28375.063,6,0.100,92.000,0.200,22.000,0.300,1.000,0.500,0,1.000,0,5.000,0
"05/05/08","09:05:26",136.000,"cc",28286.553,6,0.100,94.000,0.200,36.000,0.300,6.000,0.500,0,1.000,0,5.000,0
"05/05/08","09:05:32",139.000,"cc",28277.432,6,0.100,104.000,0.200,34.000,0.300,1.000,0.500,0,1.000,0,5.000,0
"05/05/08","09:05:38",150.000,"cc",28337.955,6,0.100,114.000,0.200,34.000,0.300,2.000,0.500,0,1.000,0,5.000,0
"05/05/08","09:05:44",121.000,"cc",28386.406,6,0.100,95.000,0.200,24.000,0.300,1.000,0.500,1.000,1.000,0,5.000,0
"05/05/08","09:05:50",145.000,"cc",28295.613,6,0.100,114.000,0.200,27.000,0.300,4.000,0.500,0,1.000,0,5.000,0
"05/05/08","09:05:56",152.000,"cc",28257.182,6,0.100,125.000,0.200,26.000,0.300,1.000,0.500,0,1.000,0,5.000,0
"05/05/08","09:06:02",136.000,"cc",28343.383,6,0.100,105.000,0.200,26.000,0.300,5.000,0.500,0,1.000,0,5.000,0
"05/05/08","09:06:08",126.000,"cc",28304.059,6,0.100,95.000,0.200,30.000,0.300,1.000,0.500,0,1.000,0,5.000,0
"05/05/08","09:06:14",127.000,"cc",28286.031,6,0.100,108.000,0.200,18.000,0.300,1.000,0.500,0,1.000,0,5.000,0
"05/05/08","09:06:20",130.000,"cc",28298.438,6,0.100,107.000,0.200,23.000,0.300,0,0.500,0,1.000,0,5.000,0
"05/05/08","09:06:26",164.000,"cc",28324.516,6,0.100,135.000,0.200,27.000,0.300,2.000,0.500,0,1.000,0,5.000,0
"05/05/08","09:06:32",146.000,"cc",28328.982,6,0.100,107.000,0.200,36.000,0.300,3.000,0.500,0,1.000,0,5.000,0
"05/05/08","09:06:38",155.000,"cc",28304.996,6,0.100,117.000,0.200,36.000,0.300,1.000,0.500,1.000,1.000,0,5.000,0
"05/05/08","09:06:44",146.000,"cc",28340.889,6,0.100,113.000,0.200,32.000,0.300,1.000,0.500,0,1.000,0,5.000,0
"05/05/08","09:06:50",112.000,"cc",28294.775,6,0.100,92.000,0.200,20.000,0.300,0,0.500,0,1.000,0,5.000,0
"05/05/08","09:06:56",136.000,"cc",28335.848,6,0.100,111.000,0.200,25.000,0.300,0,0.500,0,1.000,0,5.000,0
"05/05/08","09:07:02",139.000,"cc",28315.779,6,0.100,110.000,0.200,28.000,0.300,1.000,0.500,0,1.000,0,5.000,0
"05/05/08","09:07:08",132.000,"cc",28313.699,6,0.100,109.000,0.200,20.000,0.300,3.000,0.500,0,1.000,0,5.000,0
"05/05/08","09:07:14",141.000,"cc",28344.652,6,0.100,100.000,0.200,37.000,0.300,4.000,0.500,0,1.000,0,5.000,0
"05/05/08","09:07:20",128.000,"cc",28290.465,6,0.100,104.000,0.200,21.000,0.300,3.000,0.500,0,1.000,0,5.000,0
"05/05/08","09:07:26",169.000,"cc",28314.481,6,0.100,135.000,0.200,30.000,0.300,4.000,0.500,0,1.000,0,5.000,0
"05/05/08","09:07:32",158.000,"cc",28298.199,6,0.100,123.000,0.200,34.000,0.300,1.000,0.500,0,1.000,0,5.000,0
"05/05/08","09:07:38",137.000,"cc",28366.268,6,0.100,106.000,0.200,30.000,0.300,0,0.500,1.000,1.000,0,5.000,0
"05/05/08","09:07:44",157.000,"cc",28300.477,6,0.100,129.000,0.200,27.000,0.300,1.000,0.500,0,1.000,0,5.000,0
"05/05/08","09:07:50",125.000,"cc",28276.576,6,0.100,110.000,0.200,14.000,0.300,1.000,0.500,0,1.000,0,5.000,0
"05/05/08","09:07:56",135.000,"cc",28308.799,6,0.100,113.000,0.200,22.000,0.300,0,0.500,0,1.000,0,5.000,0
"05/05/08","09:08:02",120.000,"cc",28332.266,6,0.100,102.000,0.200,18.000,0.300,0,0.500,0,1.000,0,5.000,0
"05/05/08","09:08:08",137.000,"cc",28353.555,6,0.100,106.000,0.200,28.000,0.300,3.000,0.500,0,1.000,0,5.000,0
"05/05/08","09:08:14",143.000,"cc",28304.531,6,0.100,109.000,0.200,34.000,0.300,0,0.500,0,1.000,0,5.000,0
"05/05/08","09:08:20",150.000,"cc",28343.756,6,0.100,119.000,0.200,30.000,0.300,1.000,0.500,0,1.000,0,5.000,0
"05/05/08","09:08:26",128.000,"cc",28303.522,6,0.100,103.000,0.200,22.000,0.300,2.000,0.500,1.000,1.000,0,5.000,0
"05/05/08","09:08:32",145.000,"cc",28324.059,6,0.100,118.000,0.200,27.000,0.300,0,0.500,0,1.000,0,5.000,0
"05/05/08","09:08:38",161.000,"cc",28262.449,6,0.100,131.000,0.200,28.000,0.300,2.000,0.500,0,1.000,0,5.000,0
"05/05/08","09:08:44",119.000,"cc",28371.736,6,0.100,98.000,0.200,21.000,0.300,0,0.500,0,1.000,0,5.000,0
"05/05/08","09:08:50",135.000,"cc",28330.420,6,0.100,107.000,0.200,27.000,0.300,1.000,0.500,0,1.000,0,5.000,0
"05/05/08","09:08:56",136.000,"cc",28318.641,6,0.100,108.000,0.200,27.000,0.300,0,0.500,0,1.000,1.000,5.000,0
"05/05/08","09:09:02",139.000,"cc",28282.936,6,0.100,108.000,0.200,27.000,0.300,4.000,0.500,0,1.000,0,5.000,0
"05/05/08","09:09:08",141.000,"cc",28307.879,6,0.100,116.000,0.200,21.000,0.300,4.000,0.500,0,1.000,0,5.000,0
"05/05/08","09:09:14",150.000,"cc",28353.035,6,0.100,124.000,0.200,23.000,0.300,3.000,0.500,0,1.000,0,5.000,0
"05/05/08","09:09:20",130.000,"cc",28348.113,6,0.100,102.000,0.200,27.000,0.300,1.000,0.500,0,1.000,0,5.000,0
"05/05/08","09:09:26",150.000,"cc",28280.522,6,0.100,120.000,0.200,30.000,0.300,0,0.500,0,1.000,0,5.000,0
"05/05/08","09:09:32",130.000,"cc",28330.078,6,0.100,99.000,0.200,30.000,0.300,1.000,0.500,0,1.000,0,5.000,0
"05/05/08","09:09:38",136.000,"cc",28305.645,6,0.100,105.000,0.200,29.000,0.300,2.000,0.500,0,1.000,0,5.000,0
"05/05/08","09:09:44",148.000,"cc",28296.811,6,0.100,118.000,0.200,28.000,0.300,1.000,0.500,1.000,1.000,0,5.000,0
"05/05/08","09:09:50",126.000,"cc",28342.525,6,0.100,92.000,0.200,31.000,0.300,3.000,0.500,0,1.000,0,5.000,0
"05/05/08","09:09:56",149.000,"cc",28343.123,6,0.100,113.000,0.200,33.000,0.300,2.000,0.500,1.000,1.000,0,5.000,0
"05/05/08","09:10:02",129.000,"cc",28336.191,6,0.100,111.000,0.200,16.000,0.300,2.000,0.500,0,1.000,0,5.000,0
"05/05/08","09:10:08",140.000,"cc",28261.059,6,0.100,116.000,0.200,24.000,0.300,0,0.500,0,1.000,0,5.000,0
"05/05/08","09:10:14",128.000,"cc",28287.148,6,0.100,102.000,0.200,25.000,0.300,1.000,0.500,0,1.000,0,5.000,0
"05/05/08","09:10:20",124.000,"cc",28372.420,6,0.100,95.000,0.200,27.000,0.300,2.000,0.500,0,1.000,0,5.000,0
"05/05/08","09:10:26",121.000,"cc",28326.781,6,0.100,100.000,0.200,20.000,0.300,1.000,0.500,0,1.000,0,5.000,0
"05/05/08","09:10:32",122.000,"cc",28367.686,6,0.100,105.000,0.200,16.000,0.300,1.000,0.500,0,1.000,0,5.000,0
"05/05/08","09:10:38",161.000,"cc",28355.916,6,0.100,118.000,0.200,41.000,0.300,0,0.500,2.000,1.000,0,5.000,0
"05/05/08","09:10:44",139.000,"cc",28242.732,6,0.100,110.000,0.200,26.000,0.300,3.000,0.500,0,1.000,0,5.000,0
"05/05/08","09:10:50",137.000,"cc",28318.066,6,0.100,107.000,0.200,30.000,0.300,0,0.500,0,1.000,0,5.000,0
"05/05/08","09:10:56",126.000,"cc",28321.777,6,0.100,103.000,0.200,22.000,0.300,1.000,0.500,0,1.000,0,5.000,0
"05/05/08","09:11:02",141.000,"cc",28355.055,6,0.100,114.000,0.200,27.000,0.300,0,0.500,0,1.000,0,5.000,0
"05/05/08","09:11:08",135.000,"cc",28342.135,6,0.100,109.000,0.200,26.000,0.300,0,0.500,0,1.000,0,5.000,0
"05/05/08","09:11:14",143.000,"cc",28244.481,6,0.100,114.000,0.200,27.000,0.300,1.000,0.500,1.000,1.000,0,5.000,0
"05/05/08","09:11:20",145.000,"cc",28345.199,6,0.100,128.000,0.200,16.000,0.300,0,0.500,1.000,1.000,0,5.000,0
"05/05/08","09:11:26",135.000,"cc",28350.465,6,0.100,106.000,0.200,28.000,0.300,1.000,0.500,0,1.000,0,5.000,0
"05/05/08","09:11:32",113.000,"cc",28269.320,6,0.100,83.000,0.200,27.000,0.300,3.000,0.500,0,1.000,0,5.000,0
"05/05/08","09:11:38",128.000,"cc",28313.766,6,0.100,108.000,0.200,18.000,0.300,2.000,0.500,0,1.000,0,5.000,0
"05/05/08","09:11:44",129.000,"cc",28293.316,6,0.100,109.000,0.200,20.000,0.300,0,0.500,0,1.000,0,5.000,0
"05/05/08","09:11:50",141.000,"cc",28320.820,6,0.100,113.000,0.200,26.000,0.300,2.000,0.500,0,1.000,0,5.000,0
"05/05/08","09:11:56",118.000,"cc",28298.813,6,0.100,93.000,0.200,22.000,0.300,3.000,0.500,0,1.000,0,5.000,0
"05/05/08","09:12:02",148.000,"cc",28345.053,6,0.100,112.000,0.200,35.000,0.300,1.000,0.500,0,1.000,0,5.000,0
"05/05/08","09:12:08",147.000,"cc",28318.861,6,0.100,112.000,0.200,33.000,0.300,2.000,0.500,0,1.000,0,5.000,0
"05/05/08","09:12:14",141.000,"cc",28341.758,6,0.100,115.000,0.200,20.000,0.300,6.000,0.500,0,1.000,0,5.000,0
"05/05/08","09:12:20",120.000,"cc",28298.418,6,0.100,99.000,0.200,21.000,0.300,0,0.500,0,1.000,0,5.000,0
"05/05/08","09:12:26",128.000,"cc",28307.451,6,0.100,105.000,0.200,22.000,0.300,1.000,0.500,0,1.000,0,5.000,0
"05/05/08","09:12:32",116.000,"cc",28372.027,6,0.100,89.000,0.200,27.000,0.300,0,0.500,0,1.000,0,5.000,0
"05/05/08","09:12:38",159.000,"cc",28314.115,6,0.100,130.000,0.200,29.000,0.300,0,0.500,0,1.000,0,5.000,0
"05/05/08","09:12:44",132.000,"cc",28301.592,6,0.100,100.000,0.200,31.000,0.300,0,0.500,1.000,1.000,0,5.000,0
"05/05/08","09:12:50",124.000,"cc",28327.074,6,0.100,100.000,0.200,23.000,0.300,1.000,0.500,0,1.000,0,5.000,0
"05/05/08","09:12:56",138.000,"cc",28296.414,6,0.100,115.000,0.200,22.000,0.300,1.000,0.500,0,1.000,0,5.000,0
"05/05/08","09:13:02",140.000,"cc",28312.273,6,0.100,118.000,0.200,21.000,0.300,1.000,0.500,0,1.000,0,5.000,0
"05/05/08","09:13:08",137.000,"cc",28328.002,6,0.100,109.000,0.200,26.000,0.300,2.000,0.500,0,1.000,0,5.000,0
"05/05/08","09:13:14",144.000,"cc",28299.264,6,0.100,111.000,0.200,32.000,0.300,1.000,0.500,0,1.000,0,5.000,0
"05/05/08","09:13:20",120.000,"cc",28359.145,6,0.100,99.000,0.200,20.000,0.300,0,0.500,1.000,1.000,0,5.000,0
"05/05/08","09:13:26",121.000,"cc",28310.834,6,0.100,107.000,0.200,14.000,0.300,0,0.500,0,1.000,0,5.000,0
"05/05/08","09:13:32",127.000,"cc",28327.516,6,0.100,106.000,0.200,19.000,0.300,2.000,0.500,0,1.000,0,5.000,0
"05/05/08","09:13:38",150.000,"cc",28269.844,6,0.100,119.000,0.200,27.000,0.300,4.000,0.500,0,1.000,0,5.000,0
"05/05/08","09:13:44",137.000,"cc",28321.045,6,0.100,112.000,0.200,23.000,0.300,1.000,0.500,1.000,1.000,0,5.000,0
"05/05/08","09:13:50",138.000,"cc",28326.553,6,0.100,97.000,0.200,38.000,0.300,3.000,0.500,0,1.000,0,5.000,0
"05/05/08","09:13:56",132.000,"cc",28308.836,6,0.100,105.000,0.200,26.000,0.300,1.000,0.500,0,1.000,0,5.000,0
"05/05/08","09:14:02",154.000,"cc",28332.363,6,0.100,126.000,0.200,26.000,0.300,2.000,0.500,0,1.000,0,5.000,0
"05/05/08","09:14:08",130.000,"cc",28295.633,6,0.100,113.000,0.200,14.000,0.300,3.000,0.500,0,1.000,0,5.000,0
"05/05/08","09:14:14",140.000,"cc",28300.846,6,0.100,112.000,0.200,27.000,0.300,1.000,0.500,0,1.000,0,5.000,0
"05/05/08","09:14:20",155.000,"cc",28320.996,6,0.100,128.000,0.200,27.000,0.300,0,0.500,0,1.000,0,5.000,0
"05/05/08","09:14:26",137.000,"cc",28291.971,6,0.100,115.000,0.200,21.000,0.300,1.000,0.500,0,1.000,0,5.000,0
"05/05/08","09:14:32",140.000,"cc",28367.738,6,0.100,108.000,0.200,30.000,0.300,2.000,0.500,0,1.000,0,5.000,0
"05/05/08","09:14:38",144.000,"cc",28356.010,6,0.100,120.000,0.200,21.000,0.300,2.000,0.500,1.000,1.000,0,5.000,0
"05/05/08","09:14:44",130.000,"cc",28291.990,6,0.100,98.000,0.200,31.000,0.300,0,0.500,1.000,1.000,0,5.000,0
"05/05/08","09:14:50",152.000,"cc",28311.738,6,0.100,120.000,0.200,29.000,0.300,3.000,0.500,0,1.000,0,5.000,0
"05/05/08","09:14:56",145.000,"cc",28298.535,6,0.100,122.000,0.200,21.000,0.300,1.000,0.500,1.000,1.000,0,5.000,0
"05/05/08","09:15:02",178.000,"cc",28319.691,6,0.100,139.000,0.200,35.000,0.300,4.000,0.500,0,1.000,0,5.000,0
"05/05/08","09:15:08",125.000,"cc",28322.330,6,0.100,99.000,0.200,23.000,0.300,3.000,0.500,0,1.000,0,5.000,0
"05/05/08","09:15:14",145.000,"cc",28352.049,6,0.100,116.000,0.200,26.000,0.300,3.000,0.500,0,1.000,0,5.000,0
"05/05/08","09:15:20",136.000,"cc",28321.998,6,0.100,110.000,0.200,23.000,0.300,2.000,0.500,1.000,1.000,0,5.000,0
"05/05/08","09:15:26",135.000,"cc",28325.166,6,0.100,111.000,0.200,22.000,0.300,1.000,0.500,1.000,1.000,0,5.000,0
"05/05/08","09:15:32",149.000,"cc",28293.715,6,0.100,119.000,0.200,26.000,0.300,3.000,0.500,0,1.000,1.000,5.000,0
"05/05/08","09:15:38",132.000,"cc",28350.102,6,0.100,109.000,0.200,21.000,0.300,2.000,0.500,0,1.000,0,5.000,0
"05/05/08","09:15:44",137.000,"cc",28311.451,6,0.100,107.000,0.200,30.000,0.300,0,0.500,0,1.000,0,5.000,0
"05/05/08","09:15:50",141.000,"cc",28284.764,6,0.100,111.000,0.200,30.000,0.300,0,0.500,0,1.000,0,5.000,0
"05/05/08","09:15:56",155.000,"cc",28274.197,6,0.100,127.000,0.200,28.000,0.300,0,0.500,0,1.000,0,5.000,0
"05/05/08","09:16:02",159.000,"cc",28292.838,6,0.100,127.000,0.200,26.000,0.300,6.000,0.500,0,1.000,0,5.000,0
"05/05/08","09:16:08",122.000,"cc",28376.621,6,0.100,103.000,0.200,19.000,0.300,0,0.500,0,1.000,0,5.000,0
"05/05/08","09:16:14",128.000,"cc",28288.066,6,0.100,97.000,0.200,29.000,0.300,2.000,0.500,0,1.000,0,5.000,0
"05/05/08","09:16:20",163.000,"cc",28331.309,6,0.100,134.000,0.200,28.000,0.300,1.000,0.500,0,1.000,0,5.000,0
"05/05/08","09:16:26",162.000,"cc",28301.445,6,0.100,123.000,0.200,34.000,0.300,4.000,0.500,1.000,1.000,0,5.000,0
"05/05/08","09:16:32",160.000,"cc",28301.303,6,0.100,135.000,0.200,24.000,0.300,1.000,0.500,0,1.000,0,5.000,0
"05/05/08","09:16:38",133.000,"cc",28327.246,6,0.100,106.000,0.200,25.000,0.300,2.000,0.500,0,1.000,0,5.000,0
"05/05/08","09:16:44",152.000,"cc",28298.555,6,0.100,125.000,0.200,26.000,0.300,1.000,0.500,0,1.000,0,5.000,0
"05/05/08","09:16:50",148.000,"cc",28318.211,6,0.100,115.000,0.200,29.000,0.300,4.000,0.500,0,1.000,0,5.000,0
"05/05/08","09:16:56",149.000,"cc",28378.232,6,0.100,116.000,0.200,32.000,0.300,1.000,0.500,0,1.000,0,5.000,0
"05/05/08","09:17:02",157.000,"cc",28284.090,6,0.100,120.000,0.200,35.000,0.300,2.000,0.500,0,1.000,0,5.000,0
"05/05/08","09:17:08",164.000,"cc",28290.975,6,0.100,138.000,0.200,24.000,0.300,2.000,0.500,0,1.000,0,5.000,0
"05/05/08","09:17:14",152.000,"cc",28311.498,6,0.100,113.000,0.200,35.000,0.300,4.000,0.500,0,1.000,0,5.000,0
"05/05/08","09:17:20",158.000,"cc",28324.795,6,0.100,119.000,0.200,37.000,0.300,1.000,0.500,1.000,1.000,0,5.000,0
"05/05/08","09:17:26",156.000,"cc",28365.938,6,0.100,125.000,0.200,30.000,0.300,1.000,0.500,0,1.000,0,5.000,0
"05/05/08","09:17:32",154.000,"cc",28308.213,6,0.100,120.000,0.200,33.000,0.300,1.000,0.500,0,1.000,0,5.000,0
"05/05/08","09:17:38",133.000,"cc",28322.387,6,0.100,104.000,0.200,24.000,0.300,5.000,0.500,0,1.000,0,5.000,0
"05/05/08","09:17:44",143.000,"cc",28296.523,6,0.100,112.000,0.200,29.000,0.300,2.000,0.500,0,1.000,0,5.000,0
"05/05/08","09:17:50",162.000,"cc",28281.338,6,0.100,126.000,0.200,33.000,0.300,2.000,0.500,1.000,1.000,0,5.000,0
"05/05/08","09:17:56",156.000,"cc",28325.131,6,0.100,129.000,0.200,24.000,0.300,3.000,0.500,0,1.000,0,5.000,0
"05/05/08","09:18:02",141.000,"cc",28363.027,6,0.100,111.000,0.200,29.000,0.300,1.000,0.500,0,1.000,0,5.000,0
"05/05/08","09:18:08",158.000,"cc",28333.568,6,0.100,129.000,0.200,29.000,0.300,0,0.500,0,1.000,0,5.000,0
"05/05/08","09:18:14",173.000,"cc",28293.613,6,0.100,140.000,0.200,32.000,0.300,1.000,0.500,0,1.000,0,5.000,0
"05/05/08","09:18:20",135.000,"cc",28304.561,6,0.100,109.000,0.200,24.000,0.300,2.000,0.500,0,1.000,0,5.000,0
"05/05/08","09:18:26",156.000,"cc",28310.514,6,0.100,127.000,0.200,29.000,0.300,0,0.500,0,1.000,0,5.000,0
"05/05/08","09:18:32",162.000,"cc",28299.459,6,0.100,133.000,0.200,27.000,0.300,1.000,0.500,0,1.000,1.000,5.000,0
"05/05/08","09:18:38",151.000,"cc",28320.594,6,0.100,118.000,0.200,31.000,0.300,2.000,0.500,0,1.000,0,5.000,0
"05/05/08","09:18:44",171.000,"cc",28344.391,6,0.100,140.000,0.200,29.000,0.300,2.000,0.500,0,1.000,0,5.000,0
"05/05/08","09:18:50",170.000,"cc",28286.617,6,0.100,125.000,0.200,43.000,0.300,2.000,0.500,0,1.000,0,5.000,0
"05/05/08","09:18:56",124.000,"cc",28311.383,6,0.100,102.000,0.200,21.000,0.300,1.000,0.500,0,1.000,0,5.000,0
"05/05/08","09:19:02",143.000,"cc",28345.623,6,0.100,112.000,0.200,27.000,0.300,3.000,0.500,1.000,1.000,0,5.000,0
"05/05/08","09:19:08",145.000,"cc",28279.127,6,0.100,107.000,0.200,37.000,0.300,0,0.500,1.000,1.000,0,5.000,0
"05/05/08","09:19:14",162.000,"cc",28384.510,6,0.100,122.000,0.200,36.000,0.300,4.000,0.500,0,1.000,0,5.000,0
"05/05/08","09:19:20",159.000,"cc",28295.727,6,0.100,128.000,0.200,24.000,0.300,6.000,0.500,0,1.000,1.000,5.000,0
"05/05/08","09:19:26",472.000,"cc",28339.479,6,0.100,214.000,0.200,72.000,0.300,39.000,0.500,49.000,1.000,93.000,5.000,5.000
"05/05/08","09:19:32",590.000,"cc",28323.397,6,0.100,253.000,0.200,85.000,0.300,57.000,0.500,61.000,1.000,131.000,5.000,3.000
"05/05/08","09:19:38",1411.000,"cc",28332.176,6,0.100,470.000,0.200,218.000,0.300,175.000,0.500,167.000,1.000,374.000,5.000,7.000
"05/05/08","09:19:44",4683.000,"cc",28181.520,6,0.100,1470.000,0.200,737.000,0.300,483.000,0.500,624.000,1.000,1355.000,5.000,14.000
"05/05/08","09:19:50",5822.000,"cc",28335.902,6,0.100,1962.000,0.200,867.000,0.300,613.000,0.500,752.000,1.000,1605.000,5.000,23.000
"05/05/08","09:19:56",4904.000,"cc",28323.346,6,0.100,1418.000,0.200,645.000,0.300,480.000,0.500,685.000,1.000,1647.000,5.000,29.000
"05/05/08","09:20:02",3788.000,"cc",28338.863,6,0.100,1177.000,0.200,519.000,0.300,383.000,0.500,521.000,1.000,1178.000,5.000,10.000
"05/05/08","09:20:08",4152.000,"cc",28293.803,6,0.100,1243.000,0.200,611.000,0.300,394.000,0.500,621.000,1.000,1273.000,5.000,10.000
"05/05/08","09:20:14",3878.000,"cc",28315.502,6,0.100,1241.000,0.200,553.000,0.300,394.000,0.500,498.000,1.000,1179.000,5.000,13.000